EZS29PL LSGG-LIRN

Flight info

Callsign EZS29PL
Flight time N/A
Altitude 21000
Route MEDAM DCT NITAM/N0429F350 DCT MOGBO DCT SOVAN/N0430F370 DCT RITEB DCT EVULI DCT ERIKA
Aircraft A20N/M-SDE2E3FGHIRWXY/LB1

Departure

Time 2026-05-04 16:48
Airport Geneva International Airport (LSGG)

Arrival

Time N/A
Airport Naples International Airport (LIRN)
Time Latitude Longitude Altitude Speed Heading
2026-05-04 16:15 46.23171 6.10578 1388 ft 0 kts 180°
2026-05-04 16:41 46.23145 6.10578 1387 ft 12 kts 180°
2026-05-04 16:42 46.23196 6.10358 1388 ft 17 kts 24°
2026-05-04 16:43 46.23395 6.10647 1381 ft 23 kts 61°
2026-05-04 16:43 46.23499 6.10776 1376 ft 16 kts 39°
2026-05-04 16:43 46.23586 6.10900 1377 ft 20 kts 45°
2026-05-04 16:44 46.24128 6.11698 1369 ft 25 kts 44°
2026-05-04 16:45 46.24319 6.11922 1366 ft 15 kts 336°
2026-05-04 16:46 46.24333 6.11894 1366 ft 0 kts 290°
2026-05-04 16:46 46.24335 6.11853 1367 ft 13 kts 265°
2026-05-04 16:47 46.23947 6.11105 1376 ft 109 kts 224°
2026-05-04 16:47 46.22415 6.08905 1869 ft 175 kts 223°
2026-05-04 16:48 46.19675 6.04914 3722 ft 207 kts 226°
2026-05-04 16:48 46.18626 6.03359 4114 ft 228 kts 225°
2026-05-04 16:49 46.16075 5.99790 4925 ft 267 kts 219°
2026-05-04 16:49 46.13409 5.96371 7291 ft 236 kts 223°
2026-05-04 16:50 46.11150 5.92937 8869 ft 252 kts 225°
2026-05-04 16:50 46.08653 5.89164 9175 ft 268 kts 226°
2026-05-04 16:51 46.06043 5.85374 9319 ft 263 kts 225°
2026-05-04 16:51 46.04739 5.83476 9773 ft 270 kts 228°
2026-05-04 16:51 46.01655 5.81240 11814 ft 250 kts 187°
2026-05-04 16:52 45.98385 5.81704 14191 ft 224 kts 158°
2026-05-04 16:52 45.97134 5.83063 14862 ft 236 kts 134°
2026-05-04 16:53 45.96620 5.88150 15457 ft 281 kts 92°
2026-05-04 16:53 45.98359 5.96538 16317 ft 326 kts 64°
2026-05-04 16:54 45.99612 5.99358 16511 ft 341 kts 66°
2026-05-04 16:55 46.01731 6.13085 17231 ft 382 kts 121°